User: anonymous   Login
Location: downtown San Diego
(32.7310°N, 117.1990°W)
Time: 16:04:16
(UTC-07:00)
Language:

Cosmos 1954 Rocket - Orbit

View from above orbital plane
View from above orbital plane
View from above satellite
View from above satellite

Ground track
Ground track

The orbit data is extracted from the following two-line orbital elements,

1 19257U 88053B   19290.03540112 -.00000085  00000-0 -19541-4 0  9994
2 19257  74.0462  90.3901 0019711 131.8699   7.2535 14.37444805641167
Epoch (UTC): 17 October 2019 00:50:58
Eccentricity: 0.0019711
inclination: 74.0462°
perigee height: 753 km
apogee height: 781 km
right ascension of ascending node: 90.3901°
argument of perigee: 131.8699°
revolutions per day: 14.37444805
mean anomaly at epoch: 7.2535°
orbit number at epoch: 64116

The dashed part of the orbit path shows where the satellite is in the earth's shadow,  

DLR